Location: Dappach
(48.9767°N, 9.6998°E)
Time: 21:41:55
(UTC+00:00)

COSMOS 2428 - Pass Details

Date: 17 August 2024
Orbit: 842 x 857 km, 70.9° (Epoch: 09 September)

Event Time Altitude Azimuth Distance (km) Brightness Sun altitude
Exits shadow 22:52:15 22° 86° (E) 1,798 4.3 -27.6°
Drops below altitude 10° 22:55:32 10° 52° (NE) 2,488 5.5 -27.7°
Sets 22:58:28 0° 38° (NE) 3,431 6.5 -27.7°
